Regional Weather Roundup
Issued by NWS

Home | Current Version | Previous Version | Graphics & Text | Print | Product List | Glossary On
Versions: 1 2 3 4 5 6 7 8 9 10 11 12 13 14 15 16 17 18 19 20 21 22 23 24 25 26 27 28 29 30 31 32 33 34 35 36 37 38 39 40 41 42 43 44 45 46 47 48 49 50
000
ASUS43 KBIS 262120
RWRND

NORTH DAKOTA REGIONAL WEATHER ROUNDUP
NATIONAL WEATHER SERVICE BISMARCK ND
400 PM CDT TUE MAY 26 2015

NOTE: "FAIR" INDICATES FEW OR NO CLOUDS BELOW 12,000 FEET WITH NO
SIGNIFICANT WEATHER AND/OR OBSTRUCTIONS TO VISIBILITY.


NDZ001>003-009>011-017-262200-
NORTHWEST NORTH DAKOTA

CITY           SKY/WX    TMP DP  RH WIND       PRES   REMARKS
WILLISTON      SUNNY     80  46  30 S9        29.88F
MINOT          PTSUNNY   78  41  26 SW8       29.83F
MINOT AFB      MOSUNNY   82  40  22 N8        29.82S
$$

NDZ018>021-031>035-040>046-262200-
SOUTHWEST NORTH DAKOTA

CITY           SKY/WX    TMP DP  RH WIND       PRES   REMARKS
BISMARCK       SUNNY     82  44  26 NW6       29.87F
DICKINSON      PTSUNNY   74  43  32 S12       29.90F
GARRISON         N/A     68  51  54 E12       29.88R
HETTINGER ARPT CLOUDY    72  47  40 SW10      29.95S
$$

NDZ004>008-012>016-024-026-027-054-262200-
NORTHEAST NORTH DAKOTA

CITY           SKY/WX    TMP DP  RH WIND       PRES   REMARKS
GRAND FORKS    MOSUNNY   84  43  23 N10       29.73F
GRND FRKS AFB  MOSUNNY   82  45  26 VRB3      29.75S
DEVILS LAKE    MOSUNNY   79  41  25 SW14      29.79S
$$

NDZ022-023-025-028>030-036>039-047>053-262200-
SOUTHEAST NORTH DAKOTA

CITY           SKY/WX    TMP DP  RH WIND       PRES   REMARKS
FARGO          PTSUNNY   75  56  51 S7        29.78F
JAMESTOWN      PTSUNNY   74  42  31 W13G22    29.80S
$$




USA.gov is the U.S. government's official web portal to all federal, state and local government web resources and services.